This is the latest recevied weather packets stored in our database for station/object N1IJV-10. If no packets are shown the sender has not sent any weather packets the latest 10 day(s).
| Time | Temp. | Humidity | Pressure | Rain* | Wind** | Luminosity | Snow |
|---|---|---|---|---|---|---|---|
| 1777895966 | 10° C | 85% | 1003.6 hPa | 0 mm | - | 29 W/m² | - |
| 1777895664 | 10° C | 86% | 1003.6 hPa | 0 mm | - | 27 W/m² | - |
| 1777895360 | 10° C | 86% | 1003.6 hPa | 0 mm | - | 27 W/m² | - |
| 1777895058 | 9.44° C | 87% | 1003.6 hPa | 0 mm | - | 25 W/m² | - |
| 1777894755 | 8.89° C | 89% | 1003.4 hPa | 0 mm | - | 29 W/m² | - |
| 1777894452 | 8.89° C | 89% | 1003.5 hPa | 0 mm | - | 21 W/m² | - |
| 1777894149 | 8.89° C | 89% | 1003.7 hPa | 0 mm | - | 18 W/m² | - |
| 1777893846 | 8.33° C | 89% | 1003.4 hPa | 0 mm | - | 16 W/m² | - |
| 1777893543 | 8.33° C | 89% | 1003.4 hPa | 0 mm | - | 14 W/m² | - |
| 1777893239 | 8.33° C | 89% | 1003.4 hPa | 0 mm | - | 11 W/m² | - |
| 1777892936 | 8.33° C | 90% | 1003.6 hPa | 0 mm | - | 9 W/m² | - |
| 1777892632 | 8.33° C | 89% | 1003.6 hPa | 0 mm | - | 7 W/m² | - |
| 1777892328 | 8.33° C | 89% | 1003.2 hPa | 0 mm | - | 4 W/m² | - |
| 1777892024 | 8.33° C | 89% | 1003.7 hPa | 0 mm | - | 3 W/m² | - |
| 1777891722 | 8.33° C | 89% | 1003.6 hPa | 0 mm | - | 1 W/m² | - |
| 1777891418 | 8.33° C | 88% | 1003.8 hPa | 0 mm | - | 0 W/m² | - |
| 1777891113 | 8.33° C | 88% | 1003.6 hPa | 0 mm | - | 0 W/m² | - |
| 1777890809 | 8.89° C | 87% | 1003.6 hPa | 0 mm | - | 0 W/m² | - |
| 1777890505 | 8.89° C | 87% | 1003.6 hPa | 0 mm | - | 0 W/m² | - |
| 1777890200 | 8.89° C | 87% | 1003.7 hPa | 0 mm | - | 0 W/m² | - |
| 1777889897 | 8.33° C | 88% | 1003.6 hPa | 0 mm | - | 0 W/m² | - |
| 1777889595 | 8.33° C | 88% | 1003.8 hPa | 0 mm | - | 0 W/m² | - |
| 1777889292 | 8.89° C | 87% | 1003.8 hPa | 0 mm | - | 0 W/m² | - |
| 1777888989 | 8.89° C | 87% | 1003.9 hPa | 0 mm | - | 0 W/m² | - |
| 1777888687 | 8.89° C | 87% | 1003.8 hPa | 0 mm | - | 0 W/m² | - |
* Rain latest hour (hover to see other rain measurements)
** Current wind speed in m/s (hover to see current wind gust speed)